TimeCST,TemperatureF,Dew PointF,Humidity,Sea Level PressureIn,VisibilityMPH,Wind Direction,Wind SpeedMPH,Gust SpeedMPH,PrecipitationIn,Events,Conditions,WindDirDegrees,DateUTC
12:33 AM,57.2,57.2,100,29.94,10.0,NNE,10.4,-,N/A,,Overcast,20,2013-02-24 06:33:00
12:38 AM,57.2,57.2,100,29.94,10.0,NNE,10.4,-,N/A,,Overcast,20,2013-02-24 06:38:00
12:58 AM,56.8,56.8,100,29.95,10.0,North,11.5,-,N/A,,Overcast,10,2013-02-24 06:58:00
1:13 AM,57.2,57.2,100,29.94,10.0,North,9.2,-,N/A,,Overcast,10,2013-02-24 07:13:00
1:58 AM,56.7,56.7,100,29.94,10.0,NNE,8.1,-,N/A,,Overcast,20,2013-02-24 07:58:00
2:58 AM,56.3,56.3,100,29.93,10.0,NNE,11.5,-,N/A,,Overcast,20,2013-02-24 08:58:00
3:30 AM,55.4,55.4,100,29.92,10.0,NE,5.8,-,N/A,Rain,Light Rain,50,2013-02-24 09:30:00
3:38 AM,55.4,55.4,100,29.91,10.0,NNE,8.1,-,N/A,,Scattered Clouds,30,2013-02-24 09:38:00
3:58 AM,55.2,55.2,100,29.93,10.0,NE,4.6,-,0.00,,Partly Cloudy,50,2013-02-24 09:58:00
4:58 AM,53.4,53.4,100,29.94,10.0,NNE,4.6,-,N/A,,Clear,30,2013-02-24 10:58:00
5:58 AM,52.7,52.7,100,29.95,10.0,NNE,8.1,-,N/A,,Clear,30,2013-02-24 11:58:00
6:58 AM,52.5,52.5,100,29.97,10.0,NNE,6.9,-,N/A,,Partly Cloudy,30,2013-02-24 12:58:00
7:43 AM,53.6,53.6,100,29.97,10.0,NE,8.1,-,N/A,,Mostly Cloudy,40,2013-02-24 13:43:00
7:53 AM,53.6,53.6,100,29.97,10.0,NE,9.2,-,N/A,,Mostly Cloudy,40,2013-02-24 13:53:00
7:58 AM,53.8,53.8,100,29.99,10.0,NE,8.1,-,N/A,,Overcast,40,2013-02-24 13:58:00
8:28 AM,55.4,55.4,100,29.98,10.0,NE,6.9,-,N/A,,Mostly Cloudy,50,2013-02-24 14:28:00
8:48 AM,57.2,57.2,100,29.98,10.0,ENE,6.9,-,N/A,,Mostly Cloudy,60,2013-02-24 14:48:00
8:58 AM,57.9,57.9,100,29.99,10.0,NE,9.2,-,N/A,,Mostly Cloudy,40,2013-02-24 14:58:00
9:03 AM,59.0,59.0,100,29.98,10.0,NNE,9.2,-,N/A,,Scattered Clouds,30,2013-02-24 15:03:00
9:13 AM,59.0,59.0,100,29.98,10.0,NE,6.9,-,N/A,,Light Drizzle,40,2013-02-24 15:13:00
9:58 AM,62.2,62.2,100,29.99,10.0,ENE,6.9,-,0.00,Rain,Light Rain,70,2013-02-24 15:58:00
10:58 AM,66.4,61.2,83,29.98,10.0,ESE,8.1,-,0.00,Rain,Light Rain,120,2013-02-24 16:58:00
11:02 AM,66.2,60.8,83,29.97,10.0,Variable,6.9,-,N/A,,Scattered Clouds,0,2013-02-24 17:02:00
11:06 AM,66.2,59.0,78,29.97,10.0,East,6.9,-,N/A,Rain,Light Rain,100,2013-02-24 17:06:00
11:58 AM,68.5,59.5,73,29.95,10.0,Variable,4.6,-,0.00,Rain,Light Rain,0,2013-02-24 17:58:00
12:14 PM,68.0,59.0,73,29.94,10.0,East,5.8,-,N/A,,Overcast,100,2013-02-24 18:14:00
12:15 PM,68.0,59.0,73,29.94,10.0,East,5.8,-,N/A,Rain,Light Rain,100,2013-02-24 18:15:00
12:16 PM,68.0,59.0,73,29.94,10.0,East,6.9,-,N/A,,Overcast,100,2013-02-24 18:16:00
12:17 PM,68.0,59.0,73,29.94,10.0,ESE,8.1,-,N/A,Rain,Light Rain,110,2013-02-24 18:17:00
12:37 PM,68.0,59.0,73,29.94,10.0,Variable,1.2,-,N/A,,Overcast,0,2013-02-24 18:37:00
12:48 PM,68.0,59.0,73,29.94,10.0,Variable,4.6,-,N/A,Rain,Light Rain,0,2013-02-24 18:48:00
12:58 PM,68.0,58.8,72,29.94,10.0,Variable,4.6,-,0.00,Rain,Light Rain,0,2013-02-24 18:58:00
12:59 PM,68.0,59.0,73,29.93,10.0,Variable,3.5,-,N/A,,Mostly Cloudy,0,2013-02-24 18:59:00
1:05 PM,68.0,59.0,73,29.93,10.0,ESE,6.9,-,N/A,,Light Drizzle,110,2013-02-24 19:05:00
1:07 PM,68.0,59.0,73,29.93,10.0,East,6.9,-,N/A,,Mostly Cloudy,100,2013-02-24 19:07:00
1:53 PM,66.2,60.8,83,29.92,10.0,Variable,4.6,-,N/A,Rain,Light Rain,0,2013-02-24 19:53:00
1:58 PM,66.9,60.4,80,29.93,10.0,SE,5.8,-,0.00,,Light Drizzle,140,2013-02-24 19:58:00
2:03 PM,66.2,60.8,83,29.92,10.0,Variable,5.8,-,N/A,,Mostly Cloudy,0,2013-02-24 20:03:00
2:28 PM,66.2,60.8,83,29.91,10.0,East,5.8,-,N/A,Rain,Light Rain,90,2013-02-24 20:28:00
2:31 PM,66.2,60.8,83,29.91,10.0,East,5.8,-,N/A,,Mostly Cloudy,100,2013-02-24 20:31:00
2:45 PM,66.2,60.8,83,29.90,10.0,East,5.8,-,N/A,Rain,Light Rain,100,2013-02-24 20:45:00
2:56 PM,64.4,60.8,88,29.91,10.0,SE,5.8,-,N/A,,Mostly Cloudy,130,2013-02-24 20:56:00
2:57 PM,64.4,60.8,88,29.91,10.0,SSE,6.9,-,N/A,Rain,Light Rain,150,2013-02-24 20:57:00
2:58 PM,64.4,60.8,88,29.92,10.0,SSE,6.9,-,0.00,Rain,Light Rain,150,2013-02-24 20:58:00
2:59 PM,64.4,60.8,88,29.91,10.0,SSE,8.1,-,N/A,,Mostly Cloudy,160,2013-02-24 20:59:00
3:24 PM,64.4,59.0,83,29.91,10.0,SSE,4.6,-,N/A,Rain,Light Rain,150,2013-02-24 21:24:00
3:25 PM,64.4,59.0,83,29.91,10.0,SE,4.6,-,N/A,,Overcast,140,2013-02-24 21:25:00
3:28 PM,64.4,59.0,83,29.91,10.0,SE,4.6,-,N/A,Rain,Light Rain,140,2013-02-24 21:28:00
3:58 PM,64.8,58.5,80,29.92,10.0,SE,2.3,-,0.00,Rain,Light Rain,140,2013-02-24 21:58:00
4:37 PM,64.4,59.0,83,29.90,10.0,SE,5.8,-,N/A,,Mostly Cloudy,140,2013-02-24 22:37:00
4:40 PM,64.4,59.0,83,29.90,10.0,SE,5.8,-,N/A,Rain,Light Rain,140,2013-02-24 22:40:00
4:50 PM,64.4,59.0,83,29.90,10.0,SE,5.8,-,N/A,,Mostly Cloudy,140,2013-02-24 22:50:00
4:52 PM,64.4,59.0,83,29.90,10.0,SSE,5.8,-,N/A,Rain,Light Rain,150,2013-02-24 22:52:00
4:58 PM,63.5,59.5,87,29.91,10.0,SSE,5.8,-,0.00,Rain,Light Rain,150,2013-02-24 22:58:00
5:35 PM,62.6,60.8,94,29.90,10.0,ENE,2.3,-,N/A,,Overcast,70,2013-02-24 23:35:00
5:51 PM,62.6,60.8,94,29.90,10.0,East,2.3,-,N/A,Rain,Light Rain,100,2013-02-24 23:51:00
5:58 PM,63.1,61.5,94,29.90,10.0,ENE,2.3,-,0.00,Rain,Light Rain,60,2013-02-24 23:58:00
6:21 PM,64.4,60.8,88,29.91,10.0,Calm,Calm,-,N/A,,Overcast,20,2013-02-25 00:21:00
6:58 PM,63.7,61.0,91,29.91,10.0,NE,2.3,-,0.00,,Overcast,50,2013-02-25 00:58:00
7:58 PM,63.5,61.9,94,29.90,10.0,ENE,2.3,-,N/A,,Overcast,60,2013-02-25 01:58:00
8:33 PM,62.6,62.6,100,29.88,10.0,NE,5.8,-,N/A,,Overcast,50,2013-02-25 02:33:00
8:38 PM,62.6,62.6,100,29.88,10.0,ENE,3.5,-,N/A,Thunderstorm,Light Drizzle,60,2013-02-25 02:38:00
8:50 PM,62.6,62.6,100,29.88,10.0,NNE,4.6,-,N/A,,Overcast,30,2013-02-25 02:50:00
8:58 PM,63.5,62.4,96,29.88,10.0,North,5.8,-,0.00,,Overcast,360,2013-02-25 02:58:00
9:27 PM,64.4,60.8,88,29.89,10.0,East,4.6,-,N/A,Thunderstorm,Thunderstorm,100,2013-02-25 03:27:00
9:33 PM,64.4,60.8,88,29.89,10.0,SE,4.6,-,N/A,Rain-Thunderstorm,Light Thunderstorms and Rain,130,2013-02-25 03:33:00
9:43 PM,62.6,60.8,94,29.89,7.0,East,6.9,-,N/A,Rain-Thunderstorm,Light Thunderstorms and Rain,100,2013-02-25 03:43:00
9:56 PM,62.6,60.8,94,29.88,7.0,East,4.6,-,N/A,Rain-Thunderstorm,Light Rain,80,2013-02-25 03:56:00
9:58 PM,62.6,60.8,94,29.89,7.0,Variable,4.6,-,0.02,Rain-Thunderstorm,Light Rain,0,2013-02-25 03:58:00
10:03 PM,60.8,60.8,100,29.89,9.0,Variable,2.3,-,N/A,Rain-Thunderstorm,Light Thunderstorms and Rain,0,2013-02-25 04:03:00
10:18 PM,60.8,60.8,100,29.90,6.0,NE,2.3,-,N/A,Rain-Thunderstorm,Thunderstorms and Rain,40,2013-02-25 04:18:00
10:23 PM,60.8,60.8,100,29.89,3.0,North,8.1,-,N/A,Rain-Thunderstorm,Thunderstorms and Rain,10,2013-02-25 04:23:00
10:28 PM,60.8,60.8,100,29.89,3.0,North,10.4,-,N/A,Rain-Thunderstorm,Light Thunderstorms and Rain,350,2013-02-25 04:28:00
10:33 PM,60.8,60.8,100,29.88,8.0,North,10.4,-,N/A,Rain-Thunderstorm,Light Thunderstorms and Rain,360,2013-02-25 04:33:00
10:38 PM,59.0,59.0,100,29.88,10.0,North,8.1,-,N/A,Rain-Thunderstorm,Light Thunderstorms and Rain,10,2013-02-25 04:38:00
10:39 PM,59.0,59.0,100,29.88,10.0,North,8.1,-,N/A,Rain-Thunderstorm,Light Rain,10,2013-02-25 04:39:00
10:58 PM,58.5,58.5,100,29.86,10.0,North,9.2,-,0.07,Rain-Thunderstorm,Light Rain,10,2013-02-25 04:58:00
11:02 PM,59.0,59.0,100,29.87,10.0,NNW,12.7,-,N/A,Rain-Thunderstorm,Light Thunderstorms and Rain,340,2013-02-25 05:02:00
11:07 PM,59.0,59.0,100,29.87,9.0,NNW,16.1,-,N/A,Rain-Thunderstorm,Light Thunderstorms and Rain,330,2013-02-25 05:07:00
11:12 PM,59.0,59.0,100,29.90,5.0,NW,12.7,-,N/A,Rain-Thunderstorm,Heavy Thunderstorms and Rain,320,2013-02-25 05:12:00
11:17 PM,59.0,59.0,100,29.92,1.5,West,6.9,-,N/A,Rain-Thunderstorm,Heavy Thunderstorms and Rain,270,2013-02-25 05:17:00
11:22 PM,59.0,59.0,100,29.87,0.5,NE,10.4,-,N/A,Fog-Rain-Thunderstorm,Heavy Thunderstorms and Rain,40,2013-02-25 05:22:00
11:32 PM,59.0,59.0,100,29.87,0.8,ENE,13.8,-,N/A,Rain-Thunderstorm,Heavy Thunderstorms and Rain,60,2013-02-25 05:32:00
11:37 PM,60.8,60.8,100,29.84,1.0,NE,10.4,-,N/A,Rain-Thunderstorm,Light Thunderstorms and Rain,50,2013-02-25 05:37:00
11:42 PM,60.8,60.8,100,29.84,1.8,NE,12.7,-,N/A,Rain-Thunderstorm,Light Thunderstorms and Rain,40,2013-02-25 05:42:00
11:43 PM,60.8,60.8,100,29.84,2.0,NE,12.7,-,N/A,Rain-Thunderstorm,Light Rain,50,2013-02-25 05:43:00
11:48 PM,60.8,60.8,100,29.84,6.0,ENE,10.4,-,N/A,Rain,Light Rain,70,2013-02-25 05:48:00
11:58 PM,61.2,61.2,100,29.84,4.0,ENE,8.1,-,0.86,Rain,Light Rain,70,2013-02-25 05:58:00